www.pogodaiklimat.ru

АРХИВ ПОГОДЫ в Бетеле

Время (UTC), дата Ветер
(напр.,м/с)
 
Видим.   Явления Облачность Т
(С)
Тd
(С)
f
(%)
Тe
(С)
Тes
(С)
Комфортность

P
(гПа)

Po
(гПа)
Тmin
(С)
Tmax
(С)
R
(мм)
SD
(см)
01:53 24.05 З  16 км    8/0 3000 м
[средняя] 
+13.9  +6.7  62  +12  +13    1019.5  1014.6         
02:53 24.05 СЗ  16 км    8/0 3000 м
[средняя] 
+13.3  +6.7  64  +11  +12    1019.9  1015.3         
03:53 24.05 СЗ  16 км    8/0 3000 м
[средняя верхняя] 
+12.2  +7.8  74  +10  +10    1020.3  1015.6         
04:53 24.05 СЗ  16 км    8/5 510 м
[верхняя] 
+11.1  +7.8  80  +9  +9    1021.0  1016.3  +11.1  +15.6     
05:53 24.05 СЗ  16 км    ясно  +9.4  +6.7  83  +7  +8    1021.5  1016.6         
06:53 24.05 СЗ  16 км    ясно  +8.3  +6.7  90  +6  +6    1022.0  1017.3         
07:53 24.05 СЗ  16 км    ясно  +7.8  +6.1  89  +4  +4    1022.5  1017.6         
08:53 24.05 СЗ  16 км    2/0 3300 м
[средняя] 
+6.7  +6.1  96  +3  +3    1022.8  1018.0         
09:53 24.05 СЗ  16 км    10/0 3300 м
[средняя] 
+6.7  +6.1  96  +3  +3    1023.1  1018.3         
10:53 24.05 С  16 км    10/0 3300 м
[средняя] 
+6.7  +6.1  96  +4  +4    1023.4  1018.6  +6.1  +11.1     
11:53 24.05 С  16 км    10/0 3300 м
[средняя] 
+5.6  +5.6  100  +2  +2    1023.4  1018.6         
12:53 24.05 С  16 км    ясно  +5.0  +4.4  96  +1  +1    1023.4  1018.6         
13:40 24.05 С  2 км  дымка  ясно  +4.4  +4.4  100  +1  +1      1018.6         
13:44 24.05 С  800 м  туман  ?/?  +4.4  +4.4  100  +1  +1      1018.6         
13:51 24.05   16 км  туман поземный  5/0 3600 м
[средняя] 
+3.0  +3.0  100  +2  +2      1018.6         
13:52 24.05   16 км  туман поземный  5/0 3600 м
[средняя] 
+3.3  +3.3  100  +2  +2    1023.6  1018.6         
14:03 24.05   16 км  туман поземный  5/0 3600 м
[средняя] 
+4.4  +4.4  100  +3  +3      1018.6         
14:53 24.05 С  16 км    5/0 3600 м
[средняя] 
+6.1  +5.6  97  +3  +3    1023.7  1019.0         
15:53 24.05 С  16 км    5/2 1200 м
[средняя] 
+7.8  +5.6  86  +5  +6    1024.0  1019.3         
16:53 24.05 нст  16 км    5/2 1200 м
[средняя] 
+8.9  +5.6  80  +8  +9    1024.0  1019.3  +3.3  +8.9     
17:53 24.05   16 км    ясно  +11.1  +5.6  69  +11  +17    1023.9  1019.0         
18:53 24.05 нст  16 км    2/0 3000 м
[средняя] 
+12.8  +4.4  57  +13  +19    1023.6  1018.6         
19:53 24.05 СЗ  16 км    2/0 3000 м
[средняя] 
+14.4  +4.4  51  +14  +21    1023.3  1018.6         
20:53 24.05 С  16 км    2/0 3000 м
[средняя] 
+15.0  +4.4  49  +14  +21    1022.6  1018.0         
21:53 24.05 С  16 км    2/0 4500 м
[средняя] 
+16.1  +3.9  44  +15  +22    1022.1  1017.3         
22:53 24.05 С  16 км    2/0 4500 м
[средняя] 
+16.7  +3.9  42  +16  +23    1021.5  1016.6  +8.9  +17.2     
23:53 24.05 С  16 км    2/0 4500 м
[средняя] 
+17.8  +3.9  40  +17  +23    1020.5  1015.6         
00:53 25.05 С  4
{8} 
16 км    5/0 3600 м
[средняя] 
+18.3  +3.9  38  +18  +22    1019.8  1014.9         
01:53 25.05 С  16 км    5/0 3600 м
[средняя] 
+18.3  +3.9  38  +18  +20    1019.0  1014.3         
02:53 25.05 С  16 км    8/0 3600 м
[средняя] 
+17.2  +3.9  41  +16  +17    1018.4  1013.6         
03:53 25.05 СВ  16 км    5/0 2400 м
[средняя] 
+18.3  +4.4  40  +18  +19    1017.8  1012.9         
04:53 25.05 ЮВ  16 км    ясно  +15.0  +2.8  44  +14  +16    1017.8  1012.9  +15.0  +18.9     
05:53 25.05 ЮВ  16 км    2/0 3000 м
[средняя] 
+13.9  +3.3  49  +13  +14    1017.3  1012.6         
06:53 25.05 Ю  16 км    2/0 3000 м
[средняя] 
+13.3  +3.3  51  +13  +13    1016.9  1012.2         
07:53 25.05 С  16 км    5/0 3000 м
[средняя] 
+12.2  +5.0  61  +11  +11    1016.1  1011.2         
08:53 25.05 С  16 км    ясно  +11.1  +6.7  74  +9  +9    1015.4  1010.6         
09:53 25.05 С  16 км    ясно  +10.6  +6.1  74  +9  +9    1014.6  1009.9         
10:53 25.05 СВ  16 км    ясно  +7.8  +5.6  86  +4  +4    1013.6  1008.9  +7.8  +16.7     
11:53 25.05 СВ  16 км    ясно  +8.3  +5.6  83  +5  +5    1012.6  1007.9         
12:53 25.05 СВ  16 км    ясно  +8.3  +5.6  83  +5  +5    1011.5  1006.8         
13:53 25.05 СВ  16 км    8/0 3600 м
[средняя] 
+9.4  +5.0  74  +6  +6    1010.5  1005.8         
14:53 25.05 СВ  16 км    8/0 4500 м
[средняя] 
+10.6  +5.0  68  +8  +8    1009.7  1005.2         
15:53 25.05 СВ  16 км    8/0 4500 м
[средняя] 
+11.7  +4.4  61  +9  +10    1008.8  1004.2         
16:53 25.05 В  7
{10} 
16 км    10/0 3600 м
[средняя] 
+13.3  +3.3  51  +11  +11    1008.3  1003.5  +7.8  +13.3     
17:53 25.05 В  9
{13} 
16 км    10/0 2400 м
[средняя] 
+13.3  +2.2  47  +10  +10    1008.0  1003.1         
18:53 25.05 СВ  16 км    10/5 1800 м
[средняя] 
+10.0  +5.6  74  +6  +6    1007.3  1002.8         
19:53 25.05 В  9
{12} 
16 км  слабый дождь  10/5 1500 м
[средняя] 
+10.6  +4.4  65  +7  +7    1006.7  1002.1      0.3   
20:53 25.05 В  11
{16} 
16 км  слабый дождь  10/8 1950 м
[средняя] 
+10.0  +4.4  68  +5  +5    1006.8  1002.1         

 

Местоположение метеостанции Bethel Airport: широта 60.7797 долгота -161.8378 высота над уровнем моря 38 м.

В архиве по умолчанию представлена погода в Бетеле за последние 1-2 суток. Обновление информации о фактической погоде в базе происходит ежечасно! Архивные данные за месяц целиком и за предыдущие месяцы Вы можете получить, выбрав интересующий диапазон дат из раскрывающегося списка и нажав кнопку "Ввод!".

Внимание! Архив погоды МЕТАР в базе сайта в настоящее время начинается c 1 января 2011 г. Нет смысла пытаться выбрать более раннюю дату.

Внимание! Время в таблицах - всемирное. Для получения местного времени необходимо прибавить поправку, которая в Бетеле равна -9 ч.

Ветер - указаны скорость ветра в м/с и направление, откуда дует ветер: С - северный, СВ - северо-восточный, В - восточный, ЮВ - юго-восточный, Ю - южный, ЮЗ - юго-западный, З - западный, СЗ - северо-западный.
Видимость - горизонтальная дальность видимости в метрах или километрах. При видимости от 1 до 10 км при отсутствии осадков обычно наблюдается дымка, при ухудшении видимости до 1 км и менее - туман. В сухую погоду видимость может ухудшаться дымом, пылью или мглою.
Атмосферные явления - указаны явления, наблюдавшиеся в указанный момент времени.
Облачность - указаны через наклонную черту верхняя и нижняя облачность в баллах и высота нижней границы облаков в метрах. Внимание: облачность, как и прочие метеорологические величины в США измеряются автоматическими метеостанциями. Указанные значения в баллах носят условный характер и показывают процент времени, в течение которого, в среднем, лазерный луч высотомера отражался от облаков обратно.
T - Температура воздуха - температура, измеренная на высоте 2 м над землей.
Td - Температура точки росы - температура, при понижении до которой содержащийся в воздухе водяной пар достигнет насыщения.
f - Относительная влажность воздуха - влажноcть воздуха, измеренная на высоте 2 м над землей.
Te - Эффективная температура - температура, которую ощущает одетый по сезону человек в тени. Характеристика душности погоды. При расчете учитывается влияние влажности воздуха и скорости ветра на теплоощущения человека.
Tes - Эффективная температура на солнце - температура, которую ощущает человек, с поправкой на солнечный нагрев. Характеристика знойности погоды. Зависит от высоты солнца над горизонтом, облачности и скорости ветра. Ночью, в пасмурную погоду, а также при ветре 12 м/с и более поправка равна нулю.
P - Атмосферное давление - приведенное к уровню моря атмосферное давление.
Po - Атмосферное давление - измеренное на уровне метеостанции атмосферное давление.
Tmin - Минимальная температура - минимум температуры воздуха на высоте 2 м над землей.
Tmax - Максимальная температура - максимум температуры воздуха на высоте 2 м над землей.
R - Количество осадков - Количество выпавших осадков за 3 или 6 часов, мм.
SD - Снежный покров - Высота снежного покрова, см.